Gamaliel, AR

6:18 PM CDT on September 25, 2016 (GMT -0500)
Baxter County Regional

Weather History for KBPK - March, 2014

Change the Weather History Date:

Tuesday, March 11, 2014

  Actual Average (KHRO) Record (KHRO)
Temperature  
Mean Temperature 62 °F 47 °F  
Max Temperature 78 °F 58 °F 89 °F (1967)
Min Temperature 45 °F 36 °F 0 °F (1948)
Degree Days  
Heating Degree Days 4 18  
Month to date heating degree days 213  
Since 1 July heating degree days 3385  
Cooling Degree Days 0 0  
Month to date cooling degree days 0  
Year to date cooling degree days 0  
Growing Degree Days 12 (Base 50)    
Moisture  
Dew Point 45 °F    
Average Humidity 53    
Maximum Humidity 74    
Minimum Humidity 36    
Precipitation  
Precipitation 0.00 in 0.12 in 1.76 in (1977)
Month to date precipitation 1.23  
Year to date precipitation 6.43  
Snow  
Snow 0.00 in 0.10 in 3.20 in (1948)
Month to date snowfall 1.1  
Since 1 July snowfall 10.3  
Snow Depth -    
Sea Level Pressure  
Sea Level Pressure 29.62 in    
Wind  
Wind Speed 6 mph (South)    
Max Wind Speed 15 mph    
Max Gust Speed 23 mph    
Visibility 10 miles    
Events      
T = Trace of Precipitation, MM = Missing Value Source: NWS Daily Summary

Daily Weather History Graph

Daily Weather History Graph

Search for Another Location

Airport or City:

Trip Planner

Search our weather history database for the weather conditions in past years. The results will help you decide how hot, cold, wet, or windy it might be!

Date:

Astronomy

Mar. 11, 2014 Rise Set
Actual Time 7:26 AM CDT 7:13 PM CDT
Civil Twilight 7:00 AM CDT 7:39 PM CDT
Nautical Twilight 6:30 AM CDT 8:09 PM CDT
Astronomical Twilight 6:00 AM CDT 8:39 PM CDT
Moon 2:56 PM CDT (3/11) 4:14 AM CDT (3/11)
Length of Visible Light 12h 38m
Length of Day
11h 47m
Waxing Gibbous, 78% of the Moon is Illuminated
Mar 11
Waxing Gibbous
Mar 16
Full
Mar 23
Last Quarter
Mar 30
New
Apr 7
First Quarter

Hourly Weather History & Observations

Time (CDT) Temp. Dew Point Humidity Pressure Visibility Wind Dir Wind Speed Gust Speed Precip Events Conditions
12:53 AM 54.0 °F 35.1 °F 49% 29.78 in 10.0 mi South 4.6 mph - N/A   Clear
1:53 AM 51.1 °F 36.0 °F 56% 29.77 in 10.0 mi South 5.8 mph - N/A   Clear
2:53 AM 51.1 °F 37.0 °F 59% 29.76 in 10.0 mi South 6.9 mph - N/A   Clear
3:53 AM 51.1 °F 37.0 °F 59% 29.73 in 10.0 mi South 5.8 mph - N/A   Clear
4:53 AM 52.0 °F 37.0 °F 57% 29.70 in 10.0 mi Calm Calm - N/A   Clear
5:53 AM 52.0 °F 37.9 °F 59% 29.70 in 10.0 mi Calm Calm - N/A   Clear
6:53 AM 45.0 °F 37.0 °F 74% 29.71 in 10.0 mi Calm Calm - N/A   Clear
7:53 AM 48.0 °F 37.9 °F 68% 29.71 in 9.0 mi Calm Calm - N/A   Clear
8:53 AM 55.0 °F 41.0 °F 59% 29.70 in 9.0 mi ESE 3.5 mph - N/A   Clear
9:53 AM 62.1 °F 44.1 °F 52% 29.66 in 10.0 mi South 6.9 mph - N/A   Clear
10:53 AM 66.9 °F 46.9 °F 49% 29.66 in 9.0 mi SSW 8.1 mph - N/A   Clear
11:53 AM 72.0 °F 48.0 °F 43% 29.64 in 9.0 mi South 12.7 mph 17.3 mph N/A   Clear
12:53 PM 75.9 °F 48.9 °F 38% 29.60 in 10.0 mi South 12.7 mph 19.6 mph N/A   Clear
1:53 PM 75.9 °F 48.0 °F 37% 29.57 in 10.0 mi SSW 11.5 mph - N/A   Clear
2:53 PM 78.1 °F 48.9 °F 36% 29.53 in 10.0 mi South 11.5 mph 23.0 mph N/A   Partly Cloudy
3:53 PM 77.0 °F 48.9 °F 37% 29.50 in 10.0 mi SW 10.4 mph 17.3 mph N/A   Clear
4:53 PM 75.0 °F 50.0 °F 41% 29.49 in 10.0 mi South 15.0 mph 20.7 mph N/A   Clear
5:53 PM 73.9 °F 50.0 °F 43% 29.48 in 10.0 mi South 10.4 mph 21.9 mph N/A   Clear
6:53 PM 70.0 °F 51.1 °F 51% 29.51 in 9.0 mi South 11.5 mph 20.7 mph N/A   Clear
7:53 PM 66.9 °F 51.1 °F 57% 29.55 in 10.0 mi South 9.2 mph - N/A   Clear
8:53 PM 66.0 °F 52.0 °F 60% 29.55 in 10.0 mi South 9.2 mph 19.6 mph N/A   Scattered Clouds
9:53 PM 63.0 °F 51.1 °F 65% 29.52 in 10.0 mi South 5.8 mph - N/A   Clear
10:53 PM 63.0 °F 52.0 °F 67% 29.52 in 10.0 mi South 6.9 mph - N/A   Partly Cloudy
11:53 PM 63.0 °F 52.0 °F 67% 29.51 in 9.0 mi SW 8.1 mph - N/A   Scattered Clouds